Leuchars, United Kingdom

9:06 AM BST on July 28, 2017 (GMT +0100)
Leuchars Air Base

Weather History for EGQL - December, 2011

Change the Weather History Date:

Saturday, December 24, 2011

  Actual Average Record
Temperature  
Mean Temperature 40 °F -  
Max Temperature 48 °F 42 °F 51 °F (2002)
Min Temperature 32 °F 33 °F 21 °F (2010)
Degree Days  
Heating Degree Days 25    
Moisture  
Dew Point 39 °F    
Average Humidity 84    
Maximum Humidity 93    
Minimum Humidity 74    
Precipitation  
Precipitation 0.02 in - - ()
Sea Level Pressure  
Sea Level Pressure 29.89 in    
Wind  
Wind Speed 15 mph ()    
Max Wind Speed 31 mph    
Max Gust Speed 39 mph    
Visibility 8.6 miles    
Events Rain    
Averages and records for this station are not official NWS values.
T = Trace of Precipitation, MM = Missing Value Source: Averaged Metar Reports

Daily Weather History Graph

Daily Weather History Graph

Search for Another Location

Airport or City:

Trip Planner

Search our weather history database for the weather conditions in past years. The results will help you decide how hot, cold, wet, or windy it might be!

Date:

Astronomy

Dec. 24, 2011 Rise Set
Actual Time 8:44 AM GMT 3:36 PM GMT
Civil Twilight 7:56 AM GMT 4:25 PM GMT
Nautical Twilight 7:06 AM GMT 5:14 PM GMT
Astronomical Twilight 6:20 AM GMT 6:01 PM GMT
Moon 8:20 AM GMT (12/24) 3:34 PM GMT (12/24)
Length of Visible Light 8h 28m
Length of Day
6h 52m
Waning Crescent, 0% of the Moon is Illuminated
Dec 24
Waning Crescent
Dec 24
New
Jan 1
First Quarter
Jan 9
Full
Jan 16
Last Quarter

Hourly Weather History & Observations

Time (GMT) Temp. Windchill Dew Point Humidity Pressure Visibility Wind Dir Wind Speed Gust Speed Precip Events Conditions
12:50 AM 33.8 °F 27.0 °F 30.2 °F 87% 30.04 in - West 8.1 mph - N/A   Clear
1:50 AM 33.8 °F 25.3 °F 30.2 °F 87% 30.04 in - West 11.5 mph - N/A   Clear
2:50 AM 33 °F - 30 °F 82% 30.07 in 31 mi West 10.4 mph - -   Clear
2:50 AM 32.0 °F 23.6 °F 30.2 °F 93% 30.06 in - West 10.4 mph - N/A   Clear
3:50 AM 35.6 °F 28.6 °F 30.2 °F 81% 30.06 in - West 9.2 mph - N/A   Clear
4:50 AM 35.6 °F 27.5 °F 32.0 °F 87% 30.04 in 6.2 mi West 11.5 mph - N/A   Mostly Cloudy
6:50 AM 41.0 °F 31.9 °F 35.6 °F 81% 30.04 in 6.2 mi WSW 19.6 mph - N/A   Mostly Cloudy
7:50 AM 41.0 °F 33.9 °F 37.4 °F 87% 30.01 in 6.2 mi WSW 12.7 mph - N/A   Mostly Cloudy
9:50 AM 42.8 °F 33.1 °F 39.2 °F 87% 29.95 in 6.2 mi WSW 25.3 mph - N/A   Mostly Cloudy
10:50 AM 44.6 °F 35.7 °F 39.2 °F 81% 29.92 in 6.2 mi SW 24.2 mph - N/A Rain Light Rain
11:43 AM 46.4 °F 39.0 °F 41.0 °F 81% 29.89 in 6.2 mi WSW 19.6 mph - N/A   Mostly Cloudy
11:50 AM 46 °F - 40 °F 74% 29.90 in 16 mi WSW 21.9 mph - - Rain Light Rain
11:50 AM 46.4 °F 38.5 °F 41.0 °F 81% 29.89 in 6.2 mi WSW 21.9 mph 33.4 mph N/A   Mostly Cloudy
12:50 PM 46.4 °F 37.5 °F 41.0 °F 81% 29.83 in 6.2 mi WSW 27.6 mph 39.1 mph N/A   Mostly Cloudy
1:50 PM 46.4 °F 37.2 °F 41.0 °F 81% 29.80 in 6.2 mi WSW 29.9 mph - N/A   Mostly Cloudy
2:50 PM 47 °F - 42 °F 78% 29.79 in 19 mi WSW 28.8 mph - -   Mostly Cloudy
2:50 PM 48.2 °F - 42.8 °F 82% 29.77 in 6.2 mi WSW 28.8 mph - N/A   Mostly Cloudy
3:50 PM 46.4 °F 37.5 °F 42.8 °F 87% 29.77 in 6.2 mi WSW 27.6 mph - N/A   Mostly Cloudy
4:50 PM 48.2 °F - 44.6 °F 87% 29.74 in 6.2 mi WSW 31.1 mph - N/A   Mostly Cloudy
5:50 PM 48 °F - 44 °F 83% 29.78 in 16 mi WSW 31.1 mph - - Rain Light Rain
5:50 PM 48.2 °F - 44.6 °F 87% 29.77 in 6.2 mi WSW 31.1 mph - N/A Rain Light Rain
6:50 PM 48.2 °F - 44.6 °F 87% 29.80 in - WSW 20.7 mph - N/A   Clear
7:50 PM 46.4 °F 39.0 °F 42.8 °F 87% 29.77 in 6.2 mi WSW 19.6 mph - N/A   Partly Cloudy
8:50 PM 46 °F - 43 °F 84% 29.81 in 25 mi WSW 17.3 mph - -   Partly Cloudy
8:50 PM 46.4 °F 39.5 °F 42.8 °F 87% 29.80 in 6.2 mi WSW 17.3 mph - N/A   Partly Cloudy
9:50 PM 44.6 °F 37.8 °F 42.8 °F 93% 29.83 in - WSW 15.0 mph - N/A   Clear
10:50 PM 44.6 °F 37.8 °F 41.0 °F 87% 29.83 in - West 15.0 mph - N/A   Clear
11:50 PM 43 °F - 38 °F 78% 29.88 in 19 mi WSW 8.1 mph - -   Partly Cloudy
11:50 PM 42.8 °F 38.0 °F 39.2 °F 87% 29.86 in - WSW 8.1 mph - N/A   Clear